www.pogodaiklimat.ru
ПОГОДА в Пуэрто-Лимоне
Время
(UTC), дата
12 27.11
15 27.11
18 27.11
21 27.11
00 28.11
12 28.11
15 28.11
18 28.11
21 28.11
00 29.11
12 29.11
15 29.11
18 29.11
21 29.11
00 30.11
12 30.11
15 30.11
18 30.11
21 30.11
00 1.12
12 1.12
15 1.12
18 1.12
21 1.12
00 2.12
12 2.12
15 2.12
18 2.12
21 2.12
00 3.12
12 3.12
15 3.12
18 3.12
21 3.12
00 4.12
Ветер
(напр.,м/с)
Видим. Явления Облачность Т
(С)
Тd
(С)
f
(%)
Тe
(С)
Тes
(С)
Комфортность P
(гПа)
Po
(гПа)
Тmin
(С)
Tmax
(С)
R
(мм)
R24
(мм)
S
(см)
ЮЗ 5 8000 м осадки на расстоянии 10/9 300 м
[Cb calv Ac und Cs]
+30.1 +21.7 61 +31 +31 жарко 1011.7 1011.4 +21.7 +30.1
ЮЗ 3 9000 м слаб. морось 10/9 300 м
[Cb calv Ac und Cs]
+26.8 +23.3 81 +36 +38 очень
душно
1013.0 1012.4
С 12 10 км осадки на расстоянии {морось} 10/9 600 м
[Cb calv Ac cuf]
+30.1 +21.7 61 +39 +39 очень
душно
1011.4 1011.1 +21.7 +30.1
ЮЗ 4 15 км мгла 10/10 600 м
[Ac As Ci sp]
+27.2 +22.7 76 +36 +38 очень
душно
1009.9 1009.4
ЮЗ 4 15 км осадки на расстоянии 5/4 300 м
[Cb calv Ac cuf]
+30.8 +21.7 58 +32 +32 жарко 1010.8 1010.4 +21.7 +30.8
штиль 0 15 км мгла 5/0
[Ac As Ci]
+30.8 +21.0 56 +27 +27 жарко 1012.2 1011.7 +21.0 +30.8 0.1
СВ 4 15 км мгла 8/4
[Cb calv Ac cuf Ci]
+28.0 +22.9 74 +37 +41 очень
душно
1013.9 1013.4
СВ 6 15 км мгла 1/0
[Ac As Cs]
+29.9 +21.0 59 +39 +45 очень
душно
1011.9 1011.4 +21.0 +29.9
С 6 15 км мгла 6/0
[Ac As Cs]
+29.1 +24.5 76 +41 +43 опасность
перегрева
1009.9 1009.4
З 3 15 км {туман} 10/6 600 м
[Cu Sc As op]
+29.9 +21.0 59 1011.0
ЮЗ 5 15 км мгла 8/4
[Cb calv Ac cuf Ci]
+29.9 +21.3 60 +28 +28 жарко 1011.2 1010.7 +21.3 +29.9 12
З 6 15 км осадки на расстоянии 10/6
[Cb calv Ac cuf Ci ing]
+26.6 +21.5 74 +34 +36 очень
душно
1013.6 1013.1
С 11 15 км осадки на расстоянии 10/6 600 м
[Cb calv Ac cuf Ci ing]
+30.8 +21.3 57 +38 +38 очень
душно
1012.2 1011.7 +21.3 +30.8 0.0
С 10 15 км осадки на расстоянии 10/6 600 м
[St As op]
+27.8 +23.5 77 +38 +38 очень
душно
1009.9 1009.4
З 3 15 км {дождь} 10/10 300 м
[Ac As Ci ing]
+30.8 +21.3 57 1010.5
З 5 7000 м осадки на расстоянии 10/10 300 м
[Sc diur, vesp Ac und Cs]
+30.8 +23.1 64 +32 +32 жарко 1012.8 1012.4 +23.1 +30.8 1
СЗ 7 6000 м морось 10/10 300 м
[Sc diur, vesp Ac und Cs]
+24.1 +23.4 96 +32 +33 очень
душно
1014.4 1014.1
З 5 10 км слаб. морось 10/10 300 м
[Sc diur, vesp Ac und Cc]
+23.6 +23.1 97 +31 +31 очень
душно
1012.6 1012.1 +23.1 +30.8 22
С 7 6000 м сильн. морось {дождь} 10/10 300 м
[Sc diur, vesp Ac und Cc]
+25.6 +23.1 86 +34 +34 очень
душно
1010.7 1010.4
З 4 10 км {снег, туман} 10/10 300 м
[Cu med, cong Ac As]
+26.1 +23.1 84 +32 +32 очень
душно
1011.4 1011.1 +23.1 +26.1 4 27.4
З 5 8000 м слаб. морось 10/10 300 м
[Sc diur, vesp Ac und Cs]
+26.1 +22.3 80 +30 +30 душно 1013.5 1013.1 +22.3 +26.1 2
З 3 10 км осадки на расстоянии {морось} 10/10 300 м
[Sc diur, vesp Ac und Cc]
+25.0 +22.6 87 +33 +34 очень
душно
1014.6 1014.1
З 6 10 км осадки на расстоянии 10/10 600 м
[Sc diur, vesp Ac cuf]
+27.5 +22.9 76 +37 +38 очень
душно
1012.6 1012.1 +22.3 +26.1
СЗ 7 8000 м слаб. морось 10/10 300 м
[Sc diur, vesp Ac und Cs]
+24.1 +23.0 94 +32 +32 очень
душно
1011.3 1010.7
ЮЗ 3 10 км {пыльная буря} 10/10 300 м
[Sc diur, vesp Ac und Cs]
+28.3 +22.3 70 +32 +32 душно 1012.3 1011.7 +22.3 +28.3 1 3.2
З 6 10 км морось 10/9 300 м
[Cb calv Ac cuf]
+28.3 +22.4 70 +31 +31 душно 1011.9 1011.4 +22.4 +28.3 2
СЗ 7 15 км осадки на расстоянии {морось} 10/9 600 м
[Cb calv Ac cuf Ci ing]
+26.0 +23.1 84 +35 +35 очень
душно
1013.3 1012.8
С 9 10 км слаб. морось 10/6 300 м
[St As trans Cs]
+28.3 +22.4 70 +36 +36 очень
душно
1012.6 1012.1 +22.4 +28.3 3
СЗ 3 10 км морось {дождь} 10/6 300 м
[Cb calv Ac cuf Ci fib]
+24.6 +23.3 92 +33 +34 очень
душно
1010.9 1010.4
штиль 0 10 км {ливн. дождь} 10/6 300 м
[Cu med, cong Ac As Ci sp]
+27.5 +22.4 74 1012.0 5
штиль 0 15 км морось 10/9 300 м
[Cb calv Ac und Cc]
+27.5 +22.4 74 +31 +31 душно 1011.6 1011.1 +22.4 +27.5 0.3
штиль 0 15 км осадки на расстоянии 10/6 600 м
[Cb calv Ac cuf Ci sp]
+25.5 +22.8 85 +34 +36 очень
душно
1013.3 1012.8
С 10 15 км осадки на расстоянии 9/1 600 м
[Cu Sc Ac trans]
+28.9 +22.4 68 +39 +39 очень
душно
1011.6 1011.1 +22.4 +28.9 0.0
СЗ 9 15 км осадки на расстоянии {морось} 10/6 600 м
[St As op Cs]
+27.4 +23.8 81 +38 +38 очень
душно
1009.5 1009.8
С 10 15 км {пыльная буря} 9/1 600 м
[Cu Sc Ac trans]
+29.4 +22.4 66 1011.6
Местоположение метеостанции Пуэрто-Лимон (Коста-Рика): широта 10.00 долгота -83.05 высота над уровнем моря 3 м.
В архиве по умолчанию представлена погода в Пуэрто-Лимоне за последнюю неделю. Архивные данные за месяц целиком и за предыдущие месяцы, начиная с января 2011 года, Вы можете получить, выбрав интересующий диапазон дат из раскрывающегося списка и нажав кнопку "Найти!".
*Определитесь, кто Вы:
Внимание! Время в таблицах - всемирное. Для получения местного времени необходимо прибавить поправку, которая равна -6 ч.
Смотрите также архив погоды в соседних городах и на ближайших метеорологических станциях:
Партнеры нашего сайта:      
Пояснения к столбцам:
  • Ветер - указаны скорость ветра в м/с - средняя за 10 мин, порывы в срок и между сроками (в фигурных скобках) и направление, откуда дует ветер: С - северный,
  • СВ - северо-восточный, В - восточный, ЮВ - юго-восточный, Ю - южный, ЮЗ - юго-западный, З - западный, СЗ - северо-западный.
  • Видимость - горизонтальная дальность видимости в метрах или километрах. При видимости от 1 до 10 км при отсутствии осадков обычно наблюдается дымка, при ухудшении видимости до 1 км и менее - туман. В сухую погоду видимость может ухудшаться дымом, пылью или мглою.
  • Явления - указаны атмосферные явления, наблюдавшиеся в срок или в последний час перед сроком; фигурными скобками обозначены явления, наблюдавшиеся между сроками (за 1-3 часа до срока); квадратными скобками обозначены град или гололедные отложения с указанием их диаметра в мм.
  • Облачность - указаны через наклонную черту общая и нижняя облачность в баллах и высота нижней границы облаков в метрах; квадратными скобками обозначены формы облаков: Ci - перистые, Cs - перисто-слоистые, Cc - перисто-кучевые, Ac - высококучевые, As - высокослоистые, Sc - слоисто-кучевые, Ns - слоисто-дождевые, Cu - кучевые, Cb - кучево-дождевые. Подробнее классификацию облаков см. в Атласе облаков (PDF).
  • T - Температура воздуха - температура, измеренная на высоте 2 м над землей.
  • Td - Температура точки росы - температура, при понижении до которой содержащийся в воздухе водяной пар достигнет насыщения.
  • f - Относительная влажность воздуха - влажноcть воздуха, измеренная на высоте 2 м над землей.
  • Te - Эффективная температура - температура, которую ощущает одетый по сезону человек в тени. Характеристика душности погоды. При расчете учитывается влияние влажности воздуха и скорости ветра на теплоощущения человека.
  • Tes - Эффективная температура на солнце - температура, которую ощущает человек, с поправкой на солнечный нагрев. Характеристика знойности погоды. Зависит от высоты солнца над горизонтом, облачности и скорости ветра. Ночью, в пасмурную погоду, а также при ветре 12 м/с и более поправка равна нулю.
  • P - Атмосферное давление - приведенное к уровню моря атмосферное давление.
  • Po - Атмосферное давление - измеренное на уровне метеостанции атмосферное давление.
  • Tmin - Минимальная температура - минимум температуры воздуха на высоте 2 м над землей.
  • Tmax - Максимальная температура - максимум температуры воздуха на высоте 2 м над землей.
  • R - Количество осадков - Количество выпавших осадков за период времени, мм. При наведении курсора мыши на число - период времени, за который выпало указанное количество осадков.
  • R24 - Количество осадков - Количество выпавших осадков за 24 часа, мм.
  • S - Снежный покров - Высота снежного покрова, см. При наведении курсора мыши на число - состояние снежного покрова и степень покрытия местности в баллах.